This is the latest recevied weather packets stored in our database for station/object WX7FGZ-7. If no packets are shown the sender has not sent any weather packets the latest 10 day(s).
| Time | Temp. | Humidity | Pressure | Rain* | Wind** | Luminosity | Snow |
|---|---|---|---|---|---|---|---|
| 1777742293 | 20° C | 24% | 1023.3 hPa | 0 mm | - | - | - |
| 1777742123 | 20° C | 24% | 1023.3 hPa | 0 mm | - | - | - |
| 1777741394 | 19.44° C | 24% | 1023.3 hPa | 0 mm | - | - | - |
| 1777741223 | 19.44° C | 24% | 1023.3 hPa | 0 mm | - | - | - |
| 1777741203 | 18.89° C | 25% | 1023.3 hPa | 0 mm | - | - | - |
| 1777741168 | 18.89° C | 25% | 1023.3 hPa | 0 mm | - | - | - |
| 1777740959 | 18.89° C | 25% | 1023.3 hPa | 0 mm | - | - | - |
| 1777740928 | 18.89° C | 25% | 1023.3 hPa | 0 mm | - | - | - |
| 1777740494 | 19.44° C | 23% | 1023.2 hPa | 0 mm | - | - | - |
| 1777740334 | 19.44° C | 23% | 1023.2 hPa | 0 mm | - | - | - |
| 1777739901 | 18.33° C | 25% | 1023.2 hPa | 0 mm | - | - | - |
| 1777739710 | 18.33° C | 25% | 1023.2 hPa | 0 mm | - | - | - |
| 1777739312 | 18.33° C | 23% | 1023.1 hPa | 0 mm | - | - | - |
| 1777739115 | 18.33° C | 23% | 1023.1 hPa | 0 mm | - | - | - |
| 1777738706 | 18.33° C | 26% | 1023 hPa | 0 mm | - | - | - |
| 1777738504 | 18.33° C | 26% | 1023 hPa | 0 mm | - | - | - |
| 1777737493 | 16.11° C | 26% | 1023.1 hPa | 0 mm | - | - | - |
| 1777737309 | 16.11° C | 26% | 1023.1 hPa | 0 mm | - | - | - |
| 1777736874 | 15.56° C | 23% | 1023 hPa | 0 mm | - | - | - |
| 1777736704 | 15.56° C | 23% | 1023 hPa | 0 mm | - | - | - |
| 1777736403 | 15° C | 24% | 1022.7 hPa | 0 mm | - | - | - |
| 1777736105 | 15° C | 24% | 1022.7 hPa | 0 mm | - | - | - |
| 1777735106 | 13.89° C | 24% | 1022.9 hPa | 0 mm | - | - | - |
| 1777734904 | 13.89° C | 24% | 1022.9 hPa | 0 mm | - | - | - |
| 1777734322 | 13.33° C | 24% | 1022.9 hPa | 0 mm | - | - | - |
* Rain latest hour (hover to see other rain measurements)
** Current wind speed in m/s (hover to see current wind gust speed)